When you browse on this site, cookies collect data to enhance your experience and personalize the content and advertising you see.
Visit our Privacy Policy to learn more. By continuing to use the site, you agree to this use of cookies and data.
  • In Switzerland
  • List of Countries
  • For 7 days
  • Water Temperature
  • Satellite Maps
  • Weather Map
  • Weather Widgets
  • user-avatar
    Login

    Hourly Weather Nicosia

    Today, 22 January, Tuesday

    Time Temperature Precipitation Wind Pressure Humidity
    00:00 +8°C° 0.1 mm 7 mps 749 mmHg 80%
    01:00 +8°C° 0.1 mm 7 mps 749 mmHg 80%
    02:00 +8°C° 0 mm 6 mps 749 mmHg 80%
    03:00 +8°C° 0 mm 6 mps 749 mmHg 80%
    04:00 +8°C° 0 mm 6 mps 748 mmHg 79%
    05:00 +8°C° 0 mm 6 mps 748 mmHg 79%
    06:00 +8°C° 0 mm 6 mps 748 mmHg 78%
    07:00 +9°C° 0 mm 6 mps 748 mmHg 77%
    08:00 +9°C° 0 mm 5 mps 749 mmHg 76%
    09:00 +10°C° 0 mm 5 mps 749 mmHg 74%
    10:00 +10°C° 0 mm 5 mps 749 mmHg 72%
    11:00 +12°C° 0 mm 5 mps 749 mmHg 70%
    12:00 +12°C° 0 mm 5 mps 749 mmHg 71%
    13:00 +13°C° 0 mm 4 mps 748 mmHg 71%
    14:00 +13°C° 0 mm 4 mps 748 mmHg 72%
    15:00 +12°C° 0 mm 4 mps 748 mmHg 77%
    16:00 +12°C° 0 mm 4 mps 748 mmHg 81%
    17:00 +11°C° 0 mm 4 mps 748 mmHg 86%
    18:00 +11°C° 0 mm 4 mps 748 mmHg 86%
    19:00 +11°C° 0 mm 4 mps 748 mmHg 87%
    20:00 +10°C° 0 mm 4 mps 748 mmHg 87%
    21:00 +10°C° 0 mm 4 mps 748 mmHg 87%
    22:00 +10°C° 0 mm 4 mps 749 mmHg 87%
    23:00 +10°C° 0 mm 4 mps 749 mmHg 87%

    Tomorrow, 23 January, Wednesday

    Time Temperature Precipitation Wind Pressure Humidity
    00:00 +10°C° 0 mm 4 mps 749 mmHg 86%
    01:00 +9°C° 0 mm 5 mps 749 mmHg 86%
    02:00 +9°C° 0 mm 5 mps 748 mmHg 85%
    03:00 +9°C° 0.1 mm 5 mps 748 mmHg 85%
    04:00 +9°C° 0.1 mm 5 mps 748 mmHg 85%
    05:00 +8°C° 0.1 mm 6 mps 748 mmHg 85%
    06:00 +8°C° 0.1 mm 6 mps 748 mmHg 84%
    07:00 +8°C° 0.1 mm 7 mps 748 mmHg 84%
    08:00 +8°C° 0.1 mm 7 mps 748 mmHg 83%
    09:00 +9°C° 0 mm 7 mps 748 mmHg 82%
    10:00 +9°C° 0 mm 8 mps 748 mmHg 81%
    11:00 +10°C° 0 mm 8 mps 748 mmHg 79%
    12:00 +10°C° 0 mm 8 mps 748 mmHg 78%
    13:00 +11°C° 0 mm 8 mps 747 mmHg 77%
    14:00 +11°C° 0 mm 8 mps 747 mmHg 76%
    15:00 +10°C° 0 mm 9 mps 747 mmHg 79%
    16:00 +10°C° 0 mm 9 mps 746 mmHg 82%
    17:00 +8°C° 0 mm 9 mps 746 mmHg 85%
    18:00 +7°C° 0 mm 9 mps 746 mmHg 86%
    19:00 +7°C° 0 mm 10 mps 746 mmHg 87%
    20:00 +6°C° 0 mm 10 mps 746 mmHg 88%
    21:00 +6°C° 0 mm 11 mps 746 mmHg 87%
    22:00 +6°C° 0 mm 11 mps 746 mmHg 86%
    23:00 +4°C° 0 mm 11 mps 746 mmHg 85%

    Day after tomorrow, 24 January, Thursday

    Time Temperature Precipitation Wind Pressure Humidity
    00:00 +4°C° 0 mm 11 mps 745 mmHg 84%
    01:00 +4°C° 0 mm 12 mps 745 mmHg 82%
    02:00 +4°C° 0 mm 12 mps 745 mmHg 80%
    03:00 +4°C° 0 mm 12 mps 744 mmHg 78%
    04:00 +4°C° 0 mm 12 mps 744 mmHg 75%
    05:00 +4°C° 0 mm 13 mps 743 mmHg 73%
    06:00 +4°C° 0 mm 13 mps 743 mmHg 71%
    07:00 +5°C° 0 mm 13 mps 743 mmHg 69%
    08:00 +6°C° 0 mm 14 mps 743 mmHg 67%
    09:00 +8°C° 0 mm 14 mps 743 mmHg 63%
    10:00 +9°C° 0 mm 15 mps 742 mmHg 59%
    11:00 +10°C° 0 mm 15 mps 742 mmHg 54%
    12:00 +10°C° 0 mm 15 mps 741 mmHg 55%
    13:00 +10°C° 0 mm 15 mps 741 mmHg 56%
    14:00 +11°C° 0 mm 15 mps 741 mmHg 57%
    15:00 +10°C° 0.2 mm 14 mps 741 mmHg 66%
    16:00 +9°C° 0.2 mm 13 mps 741 mmHg 75%
    17:00 +8°C° 0.2 mm 12 mps 741 mmHg 83%
    18:00 +7°C° 2.1 mm 11 mps 742 mmHg 88%
    19:00 +7°C° 2.1 mm 10 mps 742 mmHg 92%
    20:00 +7°C° 2.1 mm 8 mps 743 mmHg 96%
    21:00 +8°C° 1.8 mm 7 mps 743 mmHg 96%
    22:00 +8°C° 1.8 mm 6 mps 744 mmHg 97%
    23:00 +8°C° 1.8 mm 4 mps 744 mmHg 97%

    25 January, Friday

    Time Temperature Precipitation Wind Pressure Humidity
    00:00 +8°C° 0.7 mm 4 mps 745 mmHg 97%
    01:00 +8°C° 0.7 mm 5 mps 745 mmHg 96%
    02:00 +9°C° 0.7 mm 5 mps 745 mmHg 95%
    03:00 +9°C° 0.3 mm 5 mps 745 mmHg 95%
    04:00 +9°C° 0.3 mm 5 mps 745 mmHg 95%
    05:00 +9°C° 0.3 mm 5 mps 745 mmHg 96%
    06:00 +9°C° 0.1 mm 5 mps 746 mmHg 95%
    07:00 +9°C° 0.1 mm 5 mps 746 mmHg 94%
    08:00 +9°C° 0.1 mm 6 mps 747 mmHg 93%
    09:00 +10°C° 0.1 mm 6 mps 747 mmHg 89%
    10:00 +11°C° 0.1 mm 6 mps 747 mmHg 84%
    11:00 +11°C° 0.1 mm 6 mps 747 mmHg 80%
    12:00 +13°C° 0.1 mm 6 mps 747 mmHg 79%
    13:00 +12°C° 0.1 mm 7 mps 746 mmHg 79%
    14:00 +12°C° 0.1 mm 7 mps 746 mmHg 78%
    15:00 +11°C° 0.1 mm 8 mps 746 mmHg 82%
    16:00 +11°C° 0.1 mm 8 mps 745 mmHg 86%
    17:00 +10°C° 0.1 mm 8 mps 745 mmHg 90%
    18:00 +10°C° 0.3 mm 8 mps 745 mmHg 92%
    19:00 +10°C° 0.3 mm 8 mps 745 mmHg 94%
    20:00 +10°C° 0.3 mm 8 mps 746 mmHg 96%
    21:00 +10°C° 0.2 mm 7 mps 746 mmHg 96%
    22:00 +10°C° 0.2 mm 7 mps 746 mmHg 96%
    23:00 +10°C° 0.2 mm 7 mps 746 mmHg 96%

    26 January, Saturday

    Time Temperature Precipitation Wind Pressure Humidity
    00:00 +10°C° 0.1 mm 7 mps 745 mmHg 96%
    01:00 +10°C° 0.1 mm 7 mps 745 mmHg 96%
    02:00 +10°C° 0.1 mm 8 mps 745 mmHg 95%
    03:00 +10°C° 0 mm 8 mps 744 mmHg 94%
    04:00 +8°C° 0 mm 9 mps 744 mmHg 93%
    05:00 +8°C° 0 mm 9 mps 744 mmHg 92%
    06:00 +8°C° 0 mm 9 mps 744 mmHg 91%
    07:00 +8°C° 0 mm 10 mps 744 mmHg 91%
    08:00 +8°C° 0 mm 10 mps 744 mmHg 90%
    09:00 +9°C° 0 mm 10 mps 744 mmHg 84%
    10:00 +11°C° 0 mm 10 mps 744 mmHg 78%
    11:00 +12°C° 0 mm 11 mps 744 mmHg 73%
    12:00 +12°C° 0 mm 10 mps 743 mmHg 72%
    13:00 +13°C° 0 mm 10 mps 743 mmHg 71%
    14:00 +13°C° 0 mm 10 mps 742 mmHg 70%
    15:00 +12°C° 0 mm 10 mps 742 mmHg 74%
    16:00 +11°C° 0 mm 11 mps 742 mmHg 77%
    17:00 +11°C° 0 mm 11 mps 741 mmHg 81%
    18:00 +9°C° 0 mm 10 mps 741 mmHg 82%
    19:00 +9°C° 0 mm 10 mps 741 mmHg 83%
    20:00 +8°C° 0 mm 10 mps 741 mmHg 83%
    21:00 +8°C° 0.2 mm 9 mps 741 mmHg 83%
    22:00 +8°C° 0.2 mm 9 mps 741 mmHg 82%
    23:00 +8°C° 0.2 mm 9 mps 741 mmHg 81%

    27 January, Sunday

    Time Temperature Precipitation Wind Pressure Humidity
    00:00 +9°C° 1.1 mm 7 mps 741 mmHg 83%
    01:00 +9°C° 1.1 mm 6 mps 740 mmHg 84%
    02:00 +10°C° 1.1 mm 4 mps 740 mmHg 86%
    03:00 +10°C° 0.6 mm 4 mps 740 mmHg 89%
    04:00 +9°C° 0.6 mm 3 mps 740 mmHg 92%
    05:00 +9°C° 0.6 mm 3 mps 740 mmHg 94%
    06:00 +9°C° 0.1 mm 2 mps 740 mmHg 92%
    07:00 +9°C° 0.1 mm 2 mps 740 mmHg 90%
    08:00 +11°C° 0.1 mm 1 mps 741 mmHg 88%
    09:00 +11°C° 1 mm 1 mps 741 mmHg 89%
    10:00 +11°C° 1 mm 1 mps 741 mmHg 90%
    11:00 +11°C° 1 mm 1 mps 741 mmHg 91%
    12:00 +10°C° 2.4 mm 3 mps 741 mmHg 93%
    13:00 +9°C° 2.4 mm 5 mps 741 mmHg 94%
    14:00 +9°C° 2.4 mm 8 mps 740 mmHg 95%
    15:00 +9°C° 0.6 mm 8 mps 741 mmHg 93%
    16:00 +9°C° 0.6 mm 8 mps 741 mmHg 90%
    17:00 +9°C° 0.6 mm 8 mps 741 mmHg 88%
    18:00 +9°C° 0.3 mm 7 mps 742 mmHg 88%
    19:00 +9°C° 0.3 mm 7 mps 743 mmHg 88%
    20:00 +9°C° 0.3 mm 6 mps 743 mmHg 88%
    21:00 +8°C° 0 mm 7 mps 744 mmHg 87%
    22:00 +6°C° 0 mm 7 mps 744 mmHg 85%
    23:00 +6°C° 0 mm 7 mps 745 mmHg 84%
    Show more